Location: Fort Wayne
(41.1310°N, 85.1290°W)
Time: 20:28:31
(UTC-05:00)

SR - Visible Passes

Search period start: 18 December 2014 00:00
Search period end: 28 December 2014 00:00
Orbit: 579 x 884 km, 66.7° (Epoch: 18 December)

Date Brightness Start Highest point End Pass type
(mag) Time Alt. Az. Time Alt. Az. Time Alt. Az.
20 Dec ? 07:33:03 10° NNE 07:34:30 11° NE 07:35:54 10° NE visible
23 Dec ? 06:49:31 10° NNE 06:50:53 11° NE 06:52:14 10° NE visible
25 Dec ? 06:53:02 10° N 06:56:25 19° NE 06:59:37 10° E visible
26 Dec ? 06:05:58 10° NNE 06:07:16 11° NE 06:08:31 10° NE visible
27 Dec ? 06:57:24 10° NNW 07:01:43 33° NE 07:05:43 10° ESE visible
